#timestamp,LO_Frequency,Hit,StdDev 
1575853215.6,286047006.0,N
1575853235.4,286047005.8,N
1575853255.2,286047005.8,N
1575853275.1,286047002.9,N
1575853276.0,286047002.9,N
1575853295.8,286047002.5,N
1575853315.6,286047002.0,N
1575853335.5,286047005.5,N
1575853355.3,286047007.0,N
1575853375.2,286047003.3,N
1575853395.9,286047002.7,N
1575853415.7,286046999.7,N
1575853435.6,286047004.4,N
1575853455.4,286047000.3,N
1575853475.3,286047002.5,N
1575853495.1,286047002.4,N
1575853496.0,286047002.4,N
1575853515.8,286047000.7,N
1575853535.7,286046999.9,N
1575853555.5,286047000.9,N
1575853575.4,286047004.4,N
1575853595.2,286047002.3,N
1575853615.0,286047002.5,N
1575853615.9,286047002.5,N
1575853635.8,286046998.5,N
1575853655.6,286046998.4,N
1575853675.4,286047001.0,N
1575853695.3,286047002.3,N
1575853715.1,286047003.3,N
1575853735.9,286047003.6,N
1575853755.7,286047002.0,N
1575853775.5,286047003.4,N
1575853795.4,286047002.5,N
1575853815.2,286047001.5,N
1575853835.1,286047001.9,N
1575853836.0,286047001.9,N
1575853855.8,286047001.9,N
1575853875.6,286046999.9,N
1575853895.5,286046998.3,N
1575853915.3,286046999.6,N
1575853935.1,286046999.4,N
1575853955.9,286046998.4,N
1575853975.7,286046998.6,N
1575853995.6,286046995.4,N
1575854015.4,286046996.1,N
1575854035.2,286046996.4,N
1575854055.1,286046997.2,N
1575854056.0,286046997.2,N
1575854075.8,286046999.0,N
1575854095.7,286046997.3,N
1575854115.5,286046997.3,N
1575854135.3,286046995.5,N
1575854155.2,286046997.8,N
1575854175.0,286046997.3,N
1575854175.9,286046997.3,N
1575854195.7,286046998.1,N
1575854215.6,286047004.4,N
1575854235.4,286047001.6,N
1575854255.3,286047002.1,N
1575854275.1,286047002.0,N
1575854276.0,286047002.0,N
1575854295.8,286047000.5,N
1575854315.7,286046998.4,N
1575854335.5,286046998.8,N
1575854355.3,286047000.4,N
1575854375.2,286047002.2,N
1575854395.0,286047005.9,N
1575854395.9,286047005.9,N
1575854415.8,286047001.3,N
1575854435.6,286047003.3,N
1575854455.4,286047003.5,N
1575854475.3,286047000.5,N
1575854495.1,286047000.3,N
1575854515.9,286047000.2,N
1575854535.7,286046999.4,N
1575854555.5,286046999.5,N
1575854575.4,286047001.1,N
1575854595.2,286047001.2,N
1575854615.0,286046997.7,N
1575854615.9,286046997.7,N
1575854635.8,286046996.7,N
1575854655.6,286046997.4,N
1575854675.5,286046996.7,N
1575854695.3,286046996.6,N
1575854715.1,286046997.6,N
1575854735.9,286046999.6,N
1575854755.7,286046998.7,N
1575854775.6,286046998.3,N
1575854795.4,286046998.4,N
1575854815.2,286047000.2,N
1575854835.1,286046996.5,N
1575854836.0,286046996.5,N
1575854855.8,286046996.7,N
1575854875.6,286046995.6,N
1575854895.5,286046994.9,N
1575854915.3,286046999.3,N
1575854935.2,286046998.4,N
1575854955.9,286046998.7,N
1575854975.7,286047001.0,N
1575854995.6,286047002.7,N
1575855015.4,286047001.7,N
1575855035.3,286047003.2,N
1575855055.1,286047002.1,N
1575855056.0,286047002.1,N
1575855075.8,286047000.3,N
1575855095.7,286047002.7,N
1575855115.5,286046998.2,N
1575855135.3,286046998.3,N
1575855155.2,286046998.6,N
1575855175.0,286046998.1,N
1575855175.9,286046998.1,N
1575855195.8,286047001.9,N
1575855215.6,286047000.2,N
1575855235.4,286047000.1,N
1575855255.3,286047001.6,N
1575855275.1,286047001.7,N
1575855295.8,286047000.8,N
1575855315.7,286047001.2,N
1575855335.5,286047000.0,N
1575855355.4,286046998.8,N
1575855375.2,286046998.9,N
1575855395.0,286046999.4,N
1575855395.9,286046999.4,N
1575855415.8,286046996.5,N
1575855435.6,286046997.4,N
1575855455.4,286046998.8,N
1575855475.3,286046999.5,N
1575855495.1,286046999.1,N
1575855515.9,286046996.7,N
1575855535.7,286046999.3,N
1575855555.5,286046999.1,N
1575855575.4,286046998.8,N
1575855595.2,286046997.1,N
1575855615.0,286046997.2,N
1575855616.0,286046997.2,N
1575855635.8,286046996.5,N
1575855655.6,286046999.2,N
1575855675.5,286046996.6,N
1575855695.3,286046996.0,N
1575855715.1,286046996.8,N
1575855735.9,286046996.6,N
1575855755.7,286047002.7,N
1575855775.5,286046998.8,N
1575855795.4,286047001.2,N
1575855815.2,286046997.2,N
1575855835.1,286046999.6,N
1575855836.0,286046999.6,N
1575855855.8,286046998.6,N
1575855875.6,286047000.2,N
1575855895.5,286047002.3,N
1575855915.3,286047003.9,N
1575855935.1,286047002.0,N
1575855955.9,286047002.6,N
1575855975.7,286047005.6,N
1575855995.6,286047002.9,N
1575856015.4,286047003.9,N
1575856035.2,286047002.3,N
1575856055.1,286046999.0,N
1575856056.0,286046999.0,N
1575856075.8,286046999.8,N
1575856095.6,286047001.5,N
1575856115.5,286047007.5,N
1575856135.3,286047010.6,Y
1575856155.2,286047011.8,P
1575856175.9,286047010.0,N
1575856195.7,286047010.7,N
1575856215.6,286047009.2,N
1575856235.4,286047007.0,N
1575856255.2,286047007.5,N
1575856275.1,286047005.3,N
1575856276.0,286047005.3,N
1575856295.8,286047004.5,N
1575856315.7,286047008.6,N
1575856335.5,286047003.4,N
1575856355.3,286047001.4,N
1575856375.2,286047001.5,N
1575856395.0,286047001.7,N
1575856395.9,286047001.7,N
1575856415.8,286047004.1,N
1575856435.6,286047003.7,N
1575856455.4,286047001.7,N
1575856475.3,286047002.0,N
1575856495.1,286047002.6,N
1575856515.8,286047002.7,N
1575856535.7,286047002.6,N
1575856555.5,286047002.2,N
1575856575.3,286046998.5,N
1575856595.2,286046998.2,N
1575856615.0,286046998.5,N
1575856615.9,286046998.5,N
1575856635.8,286046997.4,N
1575856655.6,286046996.7,N
1575856675.4,286046997.4,N
1575856695.3,286046999.3,N
1575856715.1,286046999.6,N
1575856735.8,286046997.1,N
1575856755.7,286046999.6,N
1575856775.5,286047001.1,N
1575856795.4,286046999.6,N
